When you browse on this site, cookies collect data to enhance your experience and personalize the content and advertising you see.
Visit our Privacy Policy to learn more. By continuing to use the site, you agree to this use of cookies and data.
  • In Czech Republic
  • List of Countries
  • For 7 days
  • Water Temperature
  • Weather Map
  • Weather Widgets
  • user-avatar
    Login

    Hourly Weather Solnechnyy

    Today, 29 May, Friday

    Time Temperature Precipitation Wind Pressure Humidity
    00:00 +9°C° 0.5 mm 1 mps 710 mmHg 90%
    01:00 +8°C° 1.4 mm 2 mps 710 mmHg 92%
    02:00 +7°C° 1.4 mm 2 mps 710 mmHg 94%
    03:00 +8°C° 0 mm 1 mps 711 mmHg 95%
    04:00 +7°C° 1 mm 2 mps 711 mmHg 94%
    05:00 +7°C° 1 mm 2 mps 712 mmHg 93%
    06:00 +6°C° 1 mm 2 mps 712 mmHg 92%
    07:00 +7°C° 0.1 mm 3 mps 712 mmHg 86%
    08:00 +7°C° 0.1 mm 4 mps 712 mmHg 80%
    09:00 +7°C° 0 mm 4 mps 713 mmHg 75%
    10:00 +8°C° 0 mm 5 mps 713 mmHg 68%
    11:00 +8°C° 0 mm 5 mps 713 mmHg 61%
    12:00 +8°C° 0 mm 6 mps 713 mmHg 54%
    13:00 +8°C° 0 mm 6 mps 713 mmHg 52%
    14:00 +8°C° 0 mm 7 mps 713 mmHg 50%
    15:00 +8°C° 0 mm 7 mps 713 mmHg 48%
    16:00 +8°C° 0 mm 7 mps 713 mmHg 49%
    17:00 +7°C° 0 mm 6 mps 713 mmHg 50%
    18:00 +7°C° 0 mm 6 mps 714 mmHg 51%
    19:00 +5°C° 0 mm 5 mps 714 mmHg 55%
    20:00 +4°C° 0 mm 4 mps 714 mmHg 60%
    21:00 +2°C° 0 mm 3 mps 714 mmHg 65%
    22:00 +2°C° 0 mm 3 mps 715 mmHg 68%
    23:00 +1°C° 0 mm 3 mps 715 mmHg 71%

    Tomorrow, 30 May, Saturday

    Time Temperature Precipitation Wind Pressure Humidity
    00:00 +1°C° 0 mm 2 mps 715 mmHg 74%
    01:00 -1°C° 0 mm 2 mps 715 mmHg 75%
    02:00 -1°C° 0 mm 2 mps 715 mmHg 76%
    03:00 -1°C° 0 mm 2 mps 715 mmHg 78%
    04:00 -1°C° 0 mm 4 mps 715 mmHg 69%
    05:00 +1°C° 0 mm 5 mps 715 mmHg 60%
    06:00 +2°C° 0 mm 7 mps 715 mmHg 51%
    07:00 +3°C° 0 mm 7 mps 716 mmHg 48%
    08:00 +4°C° 0 mm 7 mps 716 mmHg 45%
    09:00 +4°C° 0 mm 8 mps 716 mmHg 42%
    10:00 +5°C° 0 mm 8 mps 715 mmHg 41%
    11:00 +6°C° 0 mm 8 mps 715 mmHg 40%
    12:00 +7°C° 0 mm 8 mps 715 mmHg 39%
    13:00 +8°C° 0 mm 7 mps 715 mmHg 39%
    14:00 +8°C° 0 mm 7 mps 715 mmHg 38%
    15:00 +9°C° 0 mm 7 mps 715 mmHg 38%
    16:00 +8°C° 0 mm 7 mps 715 mmHg 39%
    17:00 +8°C° 0 mm 6 mps 715 mmHg 40%
    18:00 +8°C° 0 mm 6 mps 716 mmHg 42%
    19:00 +6°C° 0 mm 5 mps 716 mmHg 49%
    20:00 +5°C° 0 mm 3 mps 716 mmHg 57%
    21:00 +4°C° 0 mm 2 mps 716 mmHg 65%
    22:00 +3°C° 0 mm 2 mps 716 mmHg 69%
    23:00 +3°C° 0 mm 1 mps 716 mmHg 73%

    Day after tomorrow, 31 May, Sunday

    Time Temperature Precipitation Wind Pressure Humidity
    00:00 +2°C° 0 mm 1 mps 716 mmHg 77%
    01:00 +2°C° 0 mm 1 mps 716 mmHg 79%
    02:00 +1°C° 0 mm 1 mps 716 mmHg 80%
    03:00 +1°C° 0 mm 1 mps 716 mmHg 82%
    04:00 +3°C° 0 mm 1 mps 717 mmHg 72%
    05:00 +5°C° 0 mm 1 mps 717 mmHg 62%
    06:00 +8°C° 0 mm 1 mps 717 mmHg 53%
    07:00 +8°C° 0 mm 2 mps 717 mmHg 48%
    08:00 +9°C° 0 mm 3 mps 717 mmHg 43%
    09:00 +10°C° 0 mm 4 mps 717 mmHg 38%
    10:00 +10°C° 0 mm 4 mps 717 mmHg 36%
    11:00 +11°C° 0 mm 3 mps 717 mmHg 34%
    12:00 +12°C° 0 mm 3 mps 717 mmHg 33%
    13:00 +12°C° 0 mm 3 mps 716 mmHg 31%
    14:00 +14°C° 0 mm 2 mps 716 mmHg 30%
    15:00 +14°C° 0 mm 2 mps 715 mmHg 28%
    16:00 +14°C° 0 mm 1 mps 715 mmHg 29%
    17:00 +14°C° 0 mm 1 mps 715 mmHg 29%
    18:00 +13°C° 0 mm 1 mps 715 mmHg 29%
    19:00 +11°C° 0 mm 1 mps 715 mmHg 35%
    20:00 +8°C° 0 mm 0 mps 715 mmHg 42%
    21:00 +6°C° 0 mm 0 mps 715 mmHg 49%
    22:00 +5°C° 0 mm 0 mps 715 mmHg 50%
    23:00 +4°C° 0 mm 0 mps 715 mmHg 52%

    1 June, Monday

    Time Temperature Precipitation Wind Pressure Humidity
    00:00 +4°C° 0 mm 0 mps 715 mmHg 54%
    01:00 +4°C° 0 mm 0 mps 716 mmHg 55%
    02:00 +3°C° 0 mm 0 mps 716 mmHg 56%
    03:00 +3°C° 0 mm 0 mps 716 mmHg 57%
    04:00 +5°C° 0 mm 0 mps 716 mmHg 52%
    05:00 +7°C° 0 mm 0 mps 716 mmHg 47%
    06:00 +9°C° 0 mm 0 mps 716 mmHg 42%
    07:00 +11°C° 0 mm 0 mps 716 mmHg 37%
    08:00 +13°C° 0 mm 0 mps 717 mmHg 33%
    09:00 +15°C° 0 mm 0 mps 717 mmHg 29%
    10:00 +16°C° 0 mm 1 mps 717 mmHg 28%
    11:00 +18°C° 0 mm 1 mps 716 mmHg 27%
    12:00 +19°C° 0 mm 1 mps 716 mmHg 26%
    13:00 +19°C° 0 mm 1 mps 716 mmHg 27%
    14:00 +19°C° 0 mm 1 mps 716 mmHg 27%
    15:00 +19°C° 0 mm 1 mps 716 mmHg 27%
    16:00 +18°C° 0 mm 1 mps 716 mmHg 29%
    17:00 +18°C° 0 mm 1 mps 715 mmHg 31%
    18:00 +16°C° 0 mm 1 mps 715 mmHg 32%
    19:00 +14°C° 0 mm 1 mps 715 mmHg 39%
    20:00 +12°C° 0 mm 1 mps 715 mmHg 45%
    21:00 +9°C° 0 mm 0 mps 716 mmHg 52%
    22:00 +8°C° 0 mm 0 mps 716 mmHg 55%
    23:00 +8°C° 0 mm 1 mps 716 mmHg 59%

    2 June, Tuesday

    Time Temperature Precipitation Wind Pressure Humidity
    00:00 +7°C° 0 mm 1 mps 716 mmHg 63%
    01:00 +7°C° 0 mm 1 mps 716 mmHg 65%
    02:00 +6°C° 0 mm 1 mps 716 mmHg 68%
    03:00 +6°C° 0 mm 1 mps 716 mmHg 70%
    04:00 +8°C° 0 mm 1 mps 716 mmHg 64%
    05:00 +10°C° 0 mm 1 mps 716 mmHg 57%
    06:00 +12°C° 0 mm 1 mps 716 mmHg 51%
    07:00 +13°C° 0 mm 1 mps 716 mmHg 46%
    08:00 +14°C° 0 mm 2 mps 716 mmHg 41%
    09:00 +16°C° 0 mm 2 mps 716 mmHg 36%
    10:00 +16°C° 0 mm 2 mps 716 mmHg 33%
    11:00 +17°C° 0 mm 3 mps 716 mmHg 31%
    12:00 +17°C° 0 mm 3 mps 716 mmHg 28%
    13:00 +17°C° 0 mm 3 mps 715 mmHg 27%
    14:00 +18°C° 0 mm 3 mps 715 mmHg 27%
    15:00 +18°C° 0 mm 3 mps 715 mmHg 26%
    16:00 +17°C° 0 mm 3 mps 715 mmHg 28%
    17:00 +17°C° 0 mm 3 mps 715 mmHg 29%
    18:00 +16°C° 0 mm 3 mps 715 mmHg 31%
    19:00 +14°C° 0 mm 2 mps 715 mmHg 37%
    20:00 +12°C° 0 mm 2 mps 716 mmHg 43%
    21:00 +9°C° 0 mm 2 mps 716 mmHg 49%
    22:00 +8°C° 0 mm 2 mps 716 mmHg 53%
    23:00 +8°C° 0 mm 1 mps 716 mmHg 56%

    3 June, Wednesday

    Time Temperature Precipitation Wind Pressure Humidity
    00:00 +7°C° 0 mm 1 mps 716 mmHg 59%
    01:00 +7°C° 0 mm 1 mps 717 mmHg 62%
    02:00 +6°C° 0 mm 1 mps 717 mmHg 66%
    03:00 +6°C° 0 mm 1 mps 717 mmHg 69%
    04:00 +7°C° 0 mm 1 mps 717 mmHg 65%
    05:00 +9°C° 0 mm 1 mps 718 mmHg 61%
    06:00 +9°C° 0 mm 2 mps 718 mmHg 56%
    07:00 +10°C° 0 mm 2 mps 718 mmHg 53%
    08:00 +11°C° 0 mm 3 mps 718 mmHg 50%
    09:00 +12°C° 0 mm 4 mps 718 mmHg 47%
    10:00 +13°C° 0 mm 4 mps 718 mmHg 48%
    11:00 +13°C° 0 mm 4 mps 718 mmHg 49%
    12:00 +13°C° 0 mm 4 mps 718 mmHg 50%
    13:00 +13°C° 0 mm 4 mps 718 mmHg 50%
    14:00 +13°C° 0 mm 4 mps 718 mmHg 51%
    15:00 +13°C° 0 mm 4 mps 718 mmHg 52%
    16:00 +13°C° 0 mm 4 mps 718 mmHg 54%
    17:00 +12°C° 0 mm 4 mps 718 mmHg 56%
    18:00 +12°C° 0 mm 4 mps 718 mmHg 57%
    19:00 +10°C° 0 mm 3 mps 718 mmHg 64%
    20:00 +9°C° 0 mm 3 mps 718 mmHg 71%
    21:00 +7°C° 0 mm 2 mps 719 mmHg 78%
    22:00 +7°C° 0 mm 2 mps 719 mmHg 80%
    23:00 +7°C° 0 mm 1 mps 719 mmHg 83%
    Show more